Regional Weather Roundup
Issued by NWS Austin/San Antonio, TX

Home | Current Version | Previous Version | Text Only | Print | Product List | Glossary On
Versions: 1 2 3 4 5 6 7 8 9 10 11 12 13 14 15 16 17 18 19 20 21 22 23 24 25 26 27 28 29 30 31 32 33 34 35 36 37 38 39 40 41 42 43 44 45 46 47 48 49 50
000
ASUS44 KEWX 211102
RWREWX
SOUTH TEXAS REGIONAL WEATHER ROUNDUP
NATIONAL WEATHER SERVICE AUSTIN/SAN ANTONIO TX
600 AM CDT SUN APR 21 2019

NOTE: "FAIR" INDICATED FEW OR NO CLOUDS BELOW 12,000 FEET WITH NO
SIGNIFICANT WEATHER AND/OR OBSTRUCTIONS TO VISIBILITY.

* - THESE STATIONS ARE NOT NWS OR FAA STATIONS...AND ARE NOT SUBJECT
    TO NWS AND FAA QUALITY CONTROL.

TXZ171-172-183>190-211200-
TEXAS HILL COUNTRY AND EDWARDS PLATEAU

CITY           SKY/WX    TMP DP  RH WIND       PRES   REMARKS
JUNCTION       CLEAR     60  50  69 SE3       29.92S
*LLANO         CLEAR     55  50  82 CALM      29.96S
BURNET         CLEAR     59  52  77 S9        29.95S
*HORSESHOE BAY CLEAR     62  53  74 S6        29.94R
*KERRVILLE     CLOUDY    59  55  87 SE9       29.96S
*FREDERICKSBRG CLEAR     57  49  74 S7        29.96R
*ROCKSPRINGS     N/A     55  52  88 SE14G20   29.97S
*BOERNE STAGE  CLOUDY    55  55 100 CALM      29.97S
*CASTROVILLE   CLEAR     58  58 100 E3        29.96F
HONDO          CLOUDY    62  59  90 E3        29.95S
*UVALDE        CLEAR     55  55  99 NE7       29.94S
DEL RIO        CLEAR     62  54  74 E13       29.87S
LAUGHLIN AFB   PTCLDY    59  54  83 E13       29.88F
CARRIZO SPRGS  MOCLDY    59  57  94 E5        29.90S
*FAITH RANCH   CLOUDY    63  59  88 E6        29.89S
$$

TXZ173-191>194-202-209-217>225-228-211200-
CENTRAL AND SOUTH CENTRAL TEXAS

CITY           SKY/WX    TMP DP  RH WIND       PRES   REMARKS
GEORGETOWN     CLEAR     60  57  89 S7        29.96S
AUSTIN/BERGSTM PTCLDY    52  50  93 CALM      29.96R
AUSTIN/MABRY   CLEAR     58  55  90 S3        29.96S
*AUSTIN/EXEC   MOCLDY    55  55 100 S6        29.97R FOG
*LAGO VISTA    CLEAR     57  56  96 S5        29.95F
SAN MARCOS     FOG       51  50  96 S3        29.97R VSB 1
NEW BRAUNFELS  CLEAR     56  55  97 W5        29.95R
RANDOLPH AFB   CLEAR     53  52  97 CALM      29.96S
PT SAN ANTONIO PTCLDY    56  56  99 CALM      29.93S
SAN ANTONIO    MOCLDY    60  58  92 SE6       29.96S
STINSON FIELD  PTCLDY    57  52  83 CALM      29.94S
*LA GRANGE     CLEAR     59  59 100 SE3       29.95R
*GIDDINGS      CLEAR     60  60 100 CALM      29.97S
*GONZALES      CLEAR     58  58 100 CALM      29.96R FOG
$$

TXZ163>164-176>182-195>201-210>213-226-227-235-211200-
SOUTHEAST TEXAS

CITY           SKY/WX    TMP DP  RH WIND       PRES   REMARKS
COLLEGE STN    CLEAR     56  55  97 S5        29.98R
*BRYAN         CLEAR     55  55 100 SE6       29.99R
*CALDWELL      CLEAR     55  55  98 CALM      29.98R
*CROCKETT        N/A     54  50  87 SE5       30.02F
*BRENHAM       CLEAR     55  55 100 CALM      29.98F
HUNTSVILLE     PTCLDY    59  53  80 S5        29.99S
CONROE         CLEAR     48  48 100 CALM      30.01S
HOUSTON BUSH   CLEAR     55  54  96 SE5       30.00S
HOUSTON HOBBY  FAIR      58  54  86 CALM      30.00R
*HOUSTON SW AP FOG       51  51 100 CALM      30.01S VSB 3/4
PEARLAND       FAIR      56  55  97 CALM      30.02R
HOUSTON HOOKS  FAIR      53  53 100 CALM      30.00S
ELLINGTON FLD  NOT AVBL
SUGAR LAND     FAIR      56  54  93 SE3       30.00R
*HOUSTON EXEC  FAIR      55  55 100 SE5       30.00S
*CLEVELAND MUN FAIR      49  49 100 CALM      30.03R
*WHARTON       CLEAR     57  55  94 SE5       29.99S
*COLUMBUS      FAIR      56  51  84 CALM      29.99S
*EAGLE LAKE    SUNNY     55  54  96 CALM      29.98
$$

TXZ214>216-236>238-211200-
THE UPPER TEXAS COAST

CITY           SKY/WX    TMP DP  RH WIND       PRES   REMARKS
*ORANGE        FAIR      51  51 100 CALM      30.06R
PORT ARTHUR    FAIR      55  52  89 CALM      30.03R
GALVESTON      FAIR      66  57  72 S10       30.02R
ANGLETON       FAIR      53  52  96 CALM      30.00S
*BAY CITY      CLEAR     59  58  96 SE5       29.99R
PALACIOS       CLEAR     67  64  90 SE9       29.97S
$$

TXZ229>234-239>247-211200-
TEXAS COASTAL BEND AND RIO GRANDE PLAINS

CITY           SKY/WX    TMP DP  RH WIND       PRES   REMARKS
VICTORIA       CLEAR     60  58  92 SE7       29.97R
*BEEVILLE      CLEAR     59  55  87 E5        29.94S
ROCKPORT       CLEAR     69  62  78 S9        29.95R
*PORT ARANSAS  CLEAR     71  64  78 SE14      29.97R
*PORT LAVACA   CLEAR     64  63  94 SE7       29.97S
*INGLESIDE     CLEAR     69  64  83 S10       29.95R
CORPUS CHRISTI PTCLDY    65  61  87 SE9       29.94S
CORPUS NAS     CLEAR     73  67  81 S13       29.94S
*ROBSTOWN      NOT AVBL
ALICE          PTCLDY    59  58  96 SE7       29.93S
KINGSVILLE NAS PTCLDY    67  63  87 SE9       29.94R
COTULLA        MOCLDY    62  61  96 SE8       29.92R
LAREDO         PTCLDY    65  62  90 SE10      29.88S
$$

TXZ248>255-211200-
DEEP SOUTH TEXAS

CITY           SKY/WX    TMP DP  RH WIND       PRES   REMARKS
BROWNSVILLE    FAIR      67  64  90 SE7       29.95R
PORT ISABEL    FAIR      69  63  81 SE12      29.94R
HARLINGEN      CLEAR     63  61  93 SE8       29.93S
*HEBBRONVILLE  CLOUDY    64  61  93 S10       29.92F
MCALLEN        CLEAR     70  65  84 SE16      29.92R
*WESLACO       CLOUDY    68  64  88 S9        29.92
FALFURRIAS     PTCLDY    64  60  86 SE6       29.93R
EDINBURG       FAIR      67  64  89 SE7       29.93S
*ZAPATA        FAIR      67  62  84 SE9       29.90S
$$

TXZ213>215-236>238-242>244-246-247-251-254-255-211200-
CMAN STATIONS

STATION/POSITION TIME  TEMP    WIND        PRES    WAVE
                       AIR SEA DIR/SP/G            HT/PER
                 (UTC) (F)     (DEG/KT/KT) (MB)    (FT/S)
SABINE PASS      1024   63 71  190/  5/  8 1018.7
SEA RIM ST PARK  1000   67     190/  9/ 11 1016.8
NORTH JETTY/GLS  1024   69 69  180/ 13/ 15 1015.9
EAGLE POINT      1024   67 70  180/  6/  7 1016.3
MORGANS POINT    1024   67 70  160/  3/  7 1016.0
PORT O`CONNOR    1030   69 71  150/ 15/ 17 1014.3
PORT ARANSAS     1000   71 72  150/ 18/ 21 1013.6
MALAQUITE BEACH  1030   72 73  130/ 17/ 21 1013.4
BAFFIN BAY       1030   71 71  140/ 13/ 16 1014.1
PORT ISABEL      1030   71 75  150/ 13/ 16 1014.3
$$




USA.gov is the U.S. government's official web portal to all federal, state and local government web resources and services.